This demonstration page uses our WeatherBlox Daily Observations layout. Learn more.

Left ArrowRight Arrow

44.89941, -97.11507

Hourly Observations for October 18, 2021

Temp ( °F °C ) Dew Point ( °F °C ) Humidity (%) Winds ( mph kmh ) Pressure ( in mb ) Visibility ( mi km ) Precip ( " mm )
12:53 am 00:53 Clear 51 10.6 40 4.4 66 66 SSE 12 19 29.92 1013 10 16 N/A
1:53 am 01:53 Clear 49 9.4 39 3.9 69 69 SSE 9 15 29.92 1013 10 16 N/A
2:53 am 02:53 Clear 48 8.9 39 3.9 71 71 SSE 10 17 29.91 1013 10 16 N/A
3:53 am 03:53 Clear 47 8.3 39 3.9 74 74 SSE 10 17 29.91 1013 10 16 N/A
4:53 am 04:53 Clear 46 7.8 38 3.3 73 73 SSE 10 17 29.90 1013 10 16 N/A
5:53 am 05:53 Clear 46 7.8 38 3.3 73 73 SSE 12 19 29.90 1012 10 16 N/A
6:53 am 06:53 Clear 45 7.2 38 3.3 77 77 SSE 10 17 29.89 1012 10 16 N/A
7:53 am 07:53 Sunny 45 7.2 38 3.3 77 77 SSE 10 17 29.89 1012 10 16 N/A
8:53 am 08:53 Sunny 48 8.9 39 3.9 71 71 SSE 14 22 29.89 1012 10 16 N/A
9:53 am 09:53 Sunny 52 11.1 40 4.4 64 64 SSE 12 19 29.88 1012 10 16 N/A
10:53 am 10:53 Sunny 58 14.4 43 6.1 58 58 SSE 12 19 29.87 1012 10 16 N/A
11:53 am 11:53 Sunny 65 18.3 43 6.1 45 45 S 13 20 29.85 1011 10 16 N/A
12:53 pm 12:53 Sunny 70 21.1 43 6.1 38 38 S 14 22 29.83 1010 10 16 N/A
1:53 pm 13:53 Sunny 74 23.3 39 3.9 28 28 S 18 30 29.80 1009 10 16 N/A
2:53 pm 14:53 Sunny 75 23.9 34 1.1 22 22 S 23 37 29.79 1009 10 16 N/A
3:53 pm 15:53 Sunny 74 23.3 37 2.8 26 26 S 17 28 29.78 1008 10 16 N/A
4:53 pm 16:53 Sunny 72 22.2 37 2.8 28 28 S 13 20 29.78 1008 10 16 N/A
5:53 pm 17:53 Sunny 67 19.4 39 3.9 36 36 S 12 19 29.78 1009 10 16 N/A
6:53 pm 18:53 Clear 63 17.2 39 3.9 41 41 SSE 9 15 29.80 1009 10 16 N/A
7:53 pm 19:53 Clear 61 16.1 39 3.9 44 44 SSE 9 15 29.80 1009 10 16 N/A
8:53 pm 20:53 Clear 60 15.6 40 4.4 47 47 SSE 15 24 29.81 1010 10 16 N/A
9:53 pm 21:53 Clear 57 13.9 39 3.9 51 51 SSE 12 19 29.82 1010 10 16 N/A
10:53 pm 22:53 Clear 55 12.8 39 3.9 55 55 SSE 13 20 29.82 1010 10 16 N/A
11:53 pm 23:53 Clear 54 12.2 39 3.9 57 57 SSE 10 17 29.82 1010 10 16 N/A

Powered by AerisWeather